Location: San Antonio
(29.4240°N, 98.4930°W)
Time: 08:00:08
(UTC-05:00)

S-56A Canister/Altair - All Passes

Search period start: 19 July 2024 00:00
Search period end: 29 July 2024 00:00
Orbit: 638 x 2487 km, 38.9° (Epoch: 18 July)

Date Brightness Start Highest point End Pass type
(mag) Time Alt. Az. Time Alt. Az. Time Alt. Az.
19 Jul - 11:11:44 10° SSW 11:18:03 25° SSE 11:22:48 10° E daylight
19 Jul - 13:15:33 10° WSW 13:22:04 82° NNW 13:26:51 10° ENE daylight
19 Jul - 15:21:51 10° WNW 15:26:07 28° N 15:30:00 10° NE daylight
19 Jul - 17:26:39 10° NW 17:30:40 32° NNE 17:35:10 10° E daylight
19 Jul - 19:29:45 10° WNW 19:34:33 73° SSW 19:41:03 10° SE daylight
19 Jul - 21:34:46 10° WSW 21:38:39 17° SW 21:43:24 10° S visible
20 Jul - 10:37:55 10° SSW 10:44:16 22° SE 10:49:08 10° E daylight
20 Jul - 12:41:21 10° WSW 12:48:29 85° SSE 12:53:30 10° ENE daylight
20 Jul - 14:47:47 10° WNW 14:52:29 31° NNW 14:56:31 10° NE daylight
20 Jul - 16:53:07 10° NW 16:57:04 29° NNE 17:01:11 10° ENE daylight
20 Jul - 18:56:22 10° WNW 19:01:00 86° SSW 19:07:00 10° ESE daylight
20 Jul - 21:00:56 10° W 21:04:54 19° SW 21:09:50 10° S visible
21 Jul - 10:04:07 10° S 10:10:26 20° SE 10:15:20 10° E daylight
21 Jul - 12:07:06 10° SW 12:14:51 73° SSE 12:20:09 10° ENE daylight
21 Jul - 14:13:36 10° W 14:18:51 35° NNW 14:23:07 10° NE daylight
21 Jul - 16:19:29 10° NW 16:23:26 27° N 16:27:21 10° ENE daylight
21 Jul - 18:22:58 10° WNW 18:27:28 79° NNE 18:33:00 10° ESE daylight
21 Jul - 20:27:12 10° W 20:31:12 22° SW 20:36:14 10° SSE daylight
22 Jul - 09:30:25 10° S 09:36:31 18° SE 09:41:24 10° ESE daylight
22 Jul - 11:32:49 10° SW 11:41:10 64° SSE 11:46:45 10° ENE daylight
22 Jul - 13:39:17 10° W 13:45:13 41° NNW 13:49:45 10° NE daylight
22 Jul - 15:45:43 10° NW 15:49:48 26° N 15:53:35 10° ENE daylight
22 Jul - 17:49:32 10° WNW 17:53:57 66° NNE 17:59:04 10° ESE daylight
22 Jul - 19:53:32 10° W 19:57:34 25° SSW 20:02:36 10° SSE daylight
23 Jul - 08:56:49 10° S 09:02:34 16° SE 09:07:17 10° ESE daylight
23 Jul - 10:58:30 10° SW 11:07:25 56° SSE 11:13:21 10° ENE daylight
23 Jul - 13:04:53 10° W 13:11:34 48° NNW 13:16:25 10° NE daylight
23 Jul - 15:11:47 10° WNW 15:16:07 27° N 15:19:57 10° ENE daylight
23 Jul - 17:16:03 10° NW 17:20:27 54° NNE 17:25:11 10° ESE daylight
23 Jul - 19:19:55 10° W 19:23:58 29° SSW 19:28:58 10° SSE daylight
24 Jul - 08:23:25 10° S 08:28:32 14° SE 08:32:54 10° ESE daylight
24 Jul - 10:24:09 10° SW 10:33:35 50° SSE 10:39:54 10° ENE daylight
24 Jul - 12:30:24 10° W 12:37:54 55° NNW 12:43:07 10° NE daylight
24 Jul - 14:37:42 10° WNW 14:42:26 28° N 14:46:24 10° ENE daylight
24 Jul - 16:42:29 10° NW 16:46:54 46° NNE 16:51:20 10° E daylight
24 Jul - 18:46:18 10° W 18:50:25 34° SSW 18:55:20 10° SSE daylight
25 Jul - 07:50:22 10° SSE 07:54:28 12° SE 07:58:06 10° ESE daylight
25 Jul - 09:49:49 10° SW 09:59:41 45° SSE 10:06:22 10° ENE daylight
25 Jul - 11:55:50 10° WSW 12:04:10 64° NNW 12:09:47 10° ENE daylight
25 Jul - 14:03:27 10° WNW 14:08:43 30° N 14:12:55 10° NE daylight
25 Jul - 16:08:50 10° NW 16:13:20 40° NNE 16:17:34 10° E daylight
25 Jul - 18:12:42 10° WNW 18:16:54 42° SSW 18:21:44 10° SE daylight
26 Jul - 07:18:18 10° SSE 07:20:19 11° SE 07:22:15 10° SE daylight
26 Jul - 09:15:30 10° SSW 09:25:43 40° SE 09:32:47 10° E daylight
26 Jul - 11:21:12 10° WSW 11:30:25 74° NNW 11:36:26 10° ENE daylight
26 Jul - 13:29:03 10° WNW 13:34:59 33° N 13:39:30 10° NE daylight
26 Jul - 15:35:04 10° NW 15:39:44 36° NNE 15:43:52 10° E daylight
26 Jul - 17:39:05 10° WNW 17:43:25 52° SSW 17:48:07 10° SE daylight
27 Jul - 08:41:13 10° SSW 08:51:41 36° SE 08:59:06 10° E daylight
27 Jul - 10:46:32 10° WSW 10:56:34 83° NNW 11:03:04 10° ENE daylight
27 Jul - 12:54:31 10° WNW 13:01:13 36° NNW 13:06:06 10° NE daylight
27 Jul - 15:01:09 10° NW 15:06:04 34° N 15:10:13 10° ENE daylight
27 Jul - 17:05:26 10° WNW 17:09:57 65° SSW 17:14:32 10° SE daylight
28 Jul - 08:06:59 10° SSW 08:17:34 33° SE 08:25:18 10° E daylight
28 Jul - 10:11:49 10° WSW 10:22:40 88° SSE 10:29:39 10° ENE daylight
28 Jul - 12:19:51 10° W 12:27:25 41° NNW 12:32:44 10° NE daylight
28 Jul - 14:27:05 10° WNW 14:32:23 33° N 14:36:37 10° ENE daylight
28 Jul - 16:31:43 10° WNW 16:36:28 81° SSW 16:40:58 10° ESE daylight
28 Jul - 18:38:11 10° WSW 18:39:40 11° SW 18:41:13 10° SSW daylight
